Weather History for Syracuse, NY

Change the Weather History Date:

Wednesday, July 3, 2013

  Actual Average Record
Temperature  
Mean Temperature 79 °F 71 °F  
Max Temperature 89 °F 81 °F 96 °F (1966)
Min Temperature 69 °F 60 °F 46 °F (1940)
Degree Days  
Heating Degree Days 0 0  
Month to date heating degree days 0 2  
Since 1 June heating degree days 61 63  
Since 1 July heating degree days 0 2  
Cooling Degree Days 14 6  
Month to date cooling degree days 30 18  
Year to date cooling degree days 206 161  
Since 1 June cooling degree days 154 131  
Growing Degree Days 29 (Base 50)    
Moisture  
Dew Point 70 °F    
Average Humidity 76    
Maximum Humidity 97    
Minimum Humidity 55    
Precipitation  
Precipitation 0.19 in 0.12 in 3.90 in (1974)
Month to date precipitation 0.53 0.36  
Year to date precipitation 21.27 17.60  
Snow  
Snow 0.00 in 0.00 in 0.00 in (2002)
Month to date snowfall 0.0 0.0  
Since 1 June snowfall 0.0 0.0  
Since 1 July snowfall 0.0 0.0  
Snow Depth 0.00 in    
Sea Level Pressure  
Sea Level Pressure 30.11 in    
Wind  
Wind Speed 4 mph (South)    
Max Wind Speed 22 mph    
Max Gust Speed 26 mph    
Visibility 9 miles    
Events Fog , Rain , Thunderstorm    
T = Trace of Precipitation, MM = Missing Value Source: NWS Daily Summary

Daily Weather History Graph

Daily Weather History Graph

Search for Another Location

Airport:

Trip Planner

Search our weather history database for the weather conditions in past years. The results will help you decide how hot, cold, wet, or windy it might be!

Date:

Astronomy

Jul. 03, 2013 Rise Set
Actual Time 5:29 AM EDT 8:47 PM EDT
Civil Twilight 4:54 AM EDT 9:22 PM EDT
Nautical Twilight 4:09 AM EDT 10:07 PM EDT
Astronomical Twilight 3:13 AM EDT 11:03 PM EDT
Moon 2:09 AM EDT (7/3) 4:53 PM EDT (7/3)
Length of Visible Light 16h 27m
Length of Day
15h 17m
Waning Crescent, 18% of the Moon is Illuminated
Jul 3
Waning Crescent
Jul 8
New
Jul 15
First Quarter
Jul 22
Full
Jul 29
Last Quarter

Hourly Weather History & Observations

Time (EDT) Temp. Heat Index Dew Point Humidity Pressure Visibility Wind Dir Wind Speed Gust Speed Precip Events Conditions
12:54 AM 70.0 °F - 66.9 °F 90% 30.07 in 8.0 mi Calm Calm - N/A   Mostly Cloudy
1:54 AM 70.0 °F - 66.9 °F 90% 30.08 in 8.0 mi Calm Calm - N/A   Overcast
2:17 AM 69.8 °F - 66.2 °F 88% 30.09 in 7.0 mi Calm Calm - N/A   Overcast
2:54 AM 70.0 °F - 66.9 °F 90% 30.08 in 7.0 mi Calm Calm - N/A Fog Patches of Fog
3:54 AM 70.0 °F - 66.9 °F 90% 30.07 in 7.0 mi Calm Calm - N/A Fog Patches of Fog
4:54 AM 69.1 °F - 66.9 °F 93% 30.08 in 7.0 mi SE 3.5 mph - N/A Fog Patches of Fog
5:54 AM 70.0 °F - 68.0 °F 93% 30.09 in 9.0 mi Calm Calm - N/A   Mostly Cloudy
6:54 AM 75.0 °F - 68.0 °F 79% 30.11 in 10.0 mi South 5.8 mph - N/A   Overcast
7:26 AM 75.2 °F - 68.0 °F 78% 30.14 in 10.0 mi South 6.9 mph - N/A   Overcast
7:54 AM 75.9 °F - 68.0 °F 76% 30.12 in 10.0 mi South 6.9 mph - N/A   Overcast
8:01 AM 77.0 °F - 68.0 °F 74% 30.14 in 10.0 mi South 9.2 mph - N/A   Overcast
8:54 AM 78.1 °F - 68.0 °F 71% 30.13 in 10.0 mi South 13.8 mph - N/A   Mostly Cloudy
9:54 AM 80.1 °F 82.7 °F 68.0 °F 67% 30.14 in 10.0 mi SSW 9.2 mph - N/A   Mostly Cloudy
10:54 AM 82.9 °F 86.5 °F 69.1 °F 63% 30.14 in 10.0 mi SW 8.1 mph - N/A   Mostly Cloudy
11:54 AM 84.0 °F 88.4 °F 70.0 °F 63% 30.13 in 10.0 mi SSW 3.5 mph - N/A   Mostly Cloudy
12:54 PM 84.0 °F 88.4 °F 70.0 °F 63% 30.13 in 10.0 mi West 6.9 mph - N/A   Overcast
1:54 PM 88.0 °F 92.9 °F 70.0 °F 55% 30.12 in 7.0 mi SW 5.8 mph - N/A   Mostly Cloudy
2:54 PM 88.0 °F 92.9 °F 70.0 °F 55% 30.11 in 10.0 mi Variable 5.8 mph - N/A   Overcast
3:54 PM 87.1 °F 91.3 °F 69.1 °F 55% 30.09 in 10.0 mi Calm Calm - N/A   Mostly Cloudy
4:54 PM 84.9 °F 91.4 °F 73.0 °F 67% 30.08 in 10.0 mi NE 4.6 mph - N/A   Mostly Cloudy
5:54 PM 87.1 °F 94.5 °F 73.0 °F 63% 30.08 in 10.0 mi ENE 6.9 mph - N/A   Mostly Cloudy
6:15 PM 78.8 °F - 69.8 °F 74% 30.10 in 1.2 mi Variable 4.6 mph 26.5 mph 0.00 in Rain Heavy Rain
6:30 PM 78.8 °F - 71.6 °F 78% 30.11 in 10.0 mi Calm Calm - 0.14 in Rain Rain
6:54 PM 77.0 °F - 73.9 °F 90% 30.09 in 10.0 mi East 5.8 mph - 0.19 in Thunderstorm Thunderstorm
7:31 PM 77.0 °F - 71.6 °F 83% 30.11 in 10.0 mi Calm Calm - N/A   Mostly Cloudy
7:54 PM 75.9 °F - 72.0 °F 87% 30.11 in 10.0 mi Calm Calm - N/A   Mostly Cloudy
8:54 PM 75.9 °F - 72.0 °F 87% 30.11 in 10.0 mi NE 4.6 mph - N/A   Mostly Cloudy
9:54 PM 75.0 °F - 72.0 °F 90% 30.12 in 10.0 mi ESE 3.5 mph - N/A   Mostly Cloudy
10:54 PM 73.9 °F - 71.1 °F 91% 30.13 in 9.0 mi Calm Calm - N/A   Mostly Cloudy
11:54 PM 73.0 °F - 71.1 °F 93% 30.13 in 7.0 mi Calm Calm - N/A   Overcast